Mt. Pocono, PA

6:56 PM EST on December 09, 2019 (GMT -0500)
Pocono Mountains Municipal

Weather History for KMPO - October, 2019

Change the Weather History Date:

Saturday, October 26, 2019

  Actual Average Record
Temperature  
Mean Temperature 50 °F 46 °F  
Max Temperature 57 °F 55 °F 77 °F (1963)
Min Temperature 42 °F 36 °F 18 °F (1952)
Degree Days  
Heating Degree Days 16 20  
Month to date heating degree days 377 419  
Since 1 July heating degree days 555 687  
Cooling Degree Days 0 0  
Month to date cooling degree days 5 0  
Year to date cooling degree days 348 313  
Moisture  
Dew Point 42 °F    
Average Humidity 79    
Maximum Humidity 100    
Minimum Humidity 53    
Precipitation  
Precipitation 0.04 in 0.10 in 3.57 in (1943)
Month to date precipitation 4.55 3.54  
Year to date precipitation 40.77 39.88  
Sea Level Pressure  
Sea Level Pressure 30.22 in    
Wind  
Wind Speed 5 mph ()    
Max Wind Speed 13 mph    
Max Gust Speed 18 mph    
Visibility 9.9 miles    
Events Rain    
T = Trace of Precipitation, MM = Missing Value Source: Averaged Metar Reports

Daily Weather History Graph

Daily Weather History Graph

Search for Another Location

Airport or City:

Astronomy

Oct. 26, 2019 Rise Set
Actual Time 7:25 AM EDT 6:05 PM EDT
Civil Twilight 6:57 AM EDT 6:33 PM EDT
Nautical Twilight 6:24 AM EDT 7:05 PM EDT
Astronomical Twilight 5:52 AM EDT 7:37 PM EDT
Moon 5:16 AM EDT (10/26) 5:40 PM EDT (10/26)
Length of Visible Light 11h 36m
Length of Day
10h 39m
Waning Crescent, 3% of the Moon is Illuminated
Oct 26
Waning Crescent
Oct 27
New
Nov 4
First Quarter
Nov 12
Full
Nov 19
Last Quarter

Hourly Weather History & Observations

Time (EDT) Temp. Windchill Dew Point Humidity Pressure Visibility Wind Dir Wind Speed Gust Speed Precip Events Conditions
12:53 AM 48.0 °F - 42.1 °F 80% 30.19 in 10.0 mi WNW 6.9 mph - N/A   Partly Cloudy
1:53 AM 45.0 °F 42.6 °F 41.0 °F 86% 30.18 in 10.0 mi WNW 4.6 mph - N/A   Clear
2:53 AM 44.1 °F 42.5 °F 42.1 °F 93% 30.19 in 10.0 mi WNW 3.5 mph - N/A   Mostly Cloudy
3:53 AM 45.0 °F 41.2 °F 42.1 °F 90% 30.19 in 10.0 mi NNW 6.9 mph - N/A   Clear
4:53 AM 44.1 °F 40.8 °F 41.0 °F 89% 30.19 in 10.0 mi NW 5.8 mph - N/A   Clear
5:53 AM 43.0 °F 38.8 °F 41.0 °F 93% 30.21 in 10.0 mi NNW 6.9 mph - N/A   Clear
6:53 AM 42.1 °F 37.7 °F 39.9 °F 92% 30.22 in 10.0 mi NNW 6.9 mph - N/A   Clear
7:53 AM 44.1 °F 40.1 °F 41.0 °F 89% 30.24 in 10.0 mi North 6.9 mph - N/A   Clear
8:53 AM 48.0 °F - 39.9 °F 74% 30.26 in 10.0 mi North 6.9 mph - N/A   Clear
9:53 AM 51.1 °F - 37.9 °F 61% 30.27 in 10.0 mi NNE 8.1 mph - N/A   Clear
10:53 AM 51.1 °F - 39.0 °F 63% 30.27 in 10.0 mi Calm Calm - N/A   Clear
11:53 AM 54.0 °F - 39.9 °F 59% 30.25 in 10.0 mi Calm Calm - N/A   Clear
12:53 PM 55.9 °F - 39.0 °F 53% 30.23 in 10.0 mi SE 6.9 mph - N/A   Clear
1:53 PM 55.0 °F - 39.0 °F 55% 30.22 in 10.0 mi Calm Calm - N/A   Clear
2:53 PM 55.0 °F - 41.0 °F 59% 30.22 in 10.0 mi SE 6.9 mph - N/A   Unknown
3:53 PM 54.0 °F - 41.0 °F 62% 30.22 in 10.0 mi SSE 6.9 mph - N/A   Clear
4:53 PM 54.0 °F - 39.9 °F 59% 30.22 in 10.0 mi SSE 6.9 mph - N/A   Clear
5:53 PM 52.0 °F - 41.0 °F 66% 30.22 in 10.0 mi SE 6.9 mph - N/A   Scattered Clouds
6:53 PM 50.0 °F - 44.1 °F 80% 30.24 in 10.0 mi SSE 4.6 mph - 0.00 in Rain Light Rain
7:53 PM 46.9 °F - 46.0 °F 97% 30.23 in 10.0 mi ESE 5.8 mph - 0.00 in Rain Light Rain
8:53 PM 48.0 °F - 46.0 °F 93% 30.22 in 10.0 mi ESE 6.9 mph - 0.00 in   Overcast
9:49 PM 48.2 °F - 46.4 °F 93% 30.21 in 10.0 mi SE 5.8 mph - 0.00 in   Overcast
9:53 PM 48.0 °F - 46.0 °F 93% 30.23 in 10.0 mi SE 6.9 mph - 0.00 in Rain Light Rain
10:53 PM 46.9 °F - 46.0 °F 97% 30.22 in 10.0 mi ESE 8.1 mph - 0.01 in Rain Light Rain
11:53 PM 46.0 °F 41.9 °F 45.0 °F 96% 30.20 in 8.0 mi ESE 8.1 mph - 0.03 in Rain Light Rain